Alamosa, CO

3:41 PM MDT on July 24, 2017 (GMT -0600)
San Luis Valley Regional / Bergman Field

Weather History for KALS - November, 2013

Change the Weather History Date:

Friday, November 1, 2013

  Actual Average Record
Temperature  
Mean Temperature 37 °F 37 °F  
Max Temperature 53 °F 55 °F 67 °F (1994)
Min Temperature 20 °F 19 °F -6 °F (1991)
Degree Days  
Heating Degree Days 28 28  
Month to date heating degree days 28 28  
Since 1 July heating degree days 1027 1138  
Cooling Degree Days 0 0  
Month to date cooling degree days 0 0  
Year to date cooling degree days 113 51  
Moisture  
Dew Point 17 °F    
Average Humidity 47    
Maximum Humidity 75    
Minimum Humidity 19    
Precipitation  
Precipitation 0.00 in 0.02 in 0.34 in (1986)
Month to date precipitation 0.00 0.02  
Year to date precipitation 8.39 6.56  
Snow  
Snow 0.00 in 0.10 in 2.00 in (2004)
Month to date snowfall 0.0 0.1  
Since 1 July snowfall 3.5 2.2  
Since 1 September snowfall 3.5 2.2  
Snow Depth 0.00 in    
Sea Level Pressure  
Sea Level Pressure 30.18 in    
Wind  
Wind Speed 8 mph (WNW)    
Max Wind Speed 24 mph    
Max Gust Speed 30 mph    
Visibility 10 miles    
Events      
T = Trace of Precipitation, MM = Missing Value Source: NWS Daily Summary

Daily Weather History Graph

Daily Weather History Graph

Search for Another Location

Airport or City:

Trip Planner

Search our weather history database for the weather conditions in past years. The results will help you decide how hot, cold, wet, or windy it might be!

Date:

Astronomy

Nov. 01, 2013 Rise Set
Actual Time 7:28 AM MDT 6:05 PM MDT
Civil Twilight 7:01 AM MDT 6:32 PM MDT
Nautical Twilight 6:30 AM MDT 7:02 PM MDT
Astronomical Twilight 6:00 AM MDT 7:33 PM MDT
Moon 5:25 AM MDT (11/1) 4:58 PM MDT (11/1)
Length of Visible Light 11h 30m
Length of Day
10h 36m
Waning Crescent, 4% of the Moon is Illuminated
Nov 1
Waning Crescent
Nov 3
New
Nov 9
First Quarter
Nov 17
Full
Nov 25
Last Quarter

Hourly Weather History & Observations

Time (MDT) Temp. Windchill Dew Point Humidity Pressure Visibility Wind Dir Wind Speed Gust Speed Precip Events Conditions
12:52 AM 21.0 °F 16.2 °F 14.0 °F 74% 30.11 in 10.0 mi SSW 3.5 mph - N/A   Clear
1:52 AM 23.0 °F 18.4 °F 15.1 °F 72% 30.09 in 10.0 mi WSW 3.5 mph - N/A   Mostly Cloudy
2:52 AM 24.1 °F 19.7 °F 17.1 °F 75% 30.09 in 10.0 mi SSW 3.5 mph - N/A   Overcast
3:52 AM 25.0 °F 17.1 °F 18.0 °F 75% 30.08 in 10.0 mi WSW 6.9 mph - N/A   Mostly Cloudy
4:52 AM 26.1 °F 19.4 °F 19.0 °F 75% 30.09 in 10.0 mi WSW 5.8 mph - N/A   Mostly Cloudy
5:52 AM 24.1 °F 18.2 °F 18.0 °F 77% 30.14 in 10.0 mi SW 4.6 mph - N/A   Scattered Clouds
6:52 AM 25.0 °F 16.3 °F 18.0 °F 75% 30.16 in 10.0 mi SW 8.1 mph - N/A   Overcast
7:52 AM 25.0 °F 19.3 °F 18.0 °F 75% 30.21 in 10.0 mi WSW 4.6 mph - N/A   Mostly Cloudy
8:52 AM 28.9 °F 21.1 °F 19.0 °F 67% 30.23 in 10.0 mi SW 8.1 mph - N/A   Mostly Cloudy
9:52 AM 37.9 °F 32.7 °F 21.0 °F 51% 30.19 in 10.0 mi SSW 6.9 mph - N/A   Partly Cloudy
10:52 AM 42.1 °F 40.2 °F 19.9 °F 41% 30.17 in 10.0 mi Variable 3.5 mph - N/A   Clear
11:52 AM 46.0 °F 41.0 °F 19.0 °F 34% 30.18 in 10.0 mi NW 10.4 mph 18.4 mph N/A   Scattered Clouds
12:52 PM 48.0 °F - 18.0 °F 30% 30.17 in 10.0 mi North 10.4 mph 16.1 mph N/A   Clear
1:52 PM 51.1 °F - 14.0 °F 23% 30.13 in 10.0 mi North 11.5 mph 20.7 mph N/A   Clear
2:52 PM 53.1 °F - 12.9 °F 20% 30.11 in 10.0 mi NNW 17.3 mph 21.9 mph N/A   Clear
3:52 PM 51.1 °F - 12.0 °F 21% 30.13 in 10.0 mi NNW 18.4 mph 27.6 mph N/A   Clear
4:52 PM 50.0 °F - 14.0 °F 24% 30.14 in 10.0 mi NNW 12.7 mph 26.5 mph N/A   Clear
5:52 PM 46.0 °F 39.9 °F 16.0 °F 30% 30.20 in 10.0 mi NNW 13.8 mph - N/A   Clear
6:52 PM 41.0 °F 33.5 °F 17.1 °F 38% 30.24 in 10.0 mi NNW 13.8 mph - N/A   Clear
7:52 PM 39.0 °F 34.8 °F 17.1 °F 41% 30.29 in 10.0 mi NNW 5.8 mph - N/A   Clear
8:52 PM 37.9 °F 31.5 °F 17.1 °F 43% 30.29 in 10.0 mi NNW 9.2 mph - N/A   Clear
9:52 PM 32.0 °F 24.2 °F 18.0 °F 56% 30.29 in 10.0 mi NNE 9.2 mph - N/A   Clear
10:52 PM 30.9 °F 26.2 °F 18.0 °F 59% 30.29 in 10.0 mi WNW 4.6 mph - N/A   Clear
11:52 PM 27.0 °F 23.0 °F 16.0 °F 63% 30.31 in 10.0 mi SSW 3.5 mph - N/A   Clear